Hourly Weather Roundup
Issued by NWS Central Illinois

Home | Current Version | Previous Version | Text Only | Print | Product List | Glossary On
Versions: 1 2 3 4 5 6 7 8 9 10 11 12 13 14 15 16 17 18 19 20 21 22 23 24 25 26 27 28 29 30 31 32 33 34 35 36 37 38 39 40 41 42 43 44 45 46 47 48 49 50
000
NZUS43 KILX 230610
HWRILX

AREA WEATHER ROUNDUP
NATIONAL WEATHER SERVICE, LINCOLN IL
100 AM CDT WED APR 23 2014


CITY           SKY/WX    TMP DP  RH WIND       PRES   REMARKS
BLOOMINGTON    FAIR      37  29  73 NE10      30.09R WCI  30
CHAMPAIGN      FAIR      42  31  64 NE16G24   30.06R WCI  34
6HR MIN TEMP:  42; 6HR MAX TEMP:  61;

DANVILLE       FAIR      38  30  72 NE6       30.05R WCI  34
6HR MIN TEMP:  38; 6HR MAX TEMP:  57;

DECATUR        FAIR      43  33  68 NE12      30.06R
6HR MIN TEMP:  43; 6HR MAX TEMP:  63;

FLORA          NOT AVBL
GALESBURG      FAIR      37  30  74 CALM      30.07R
JACKSONVILLE   FAIR      48  32  52 N7        30.05S
6HR MIN TEMP:  45; 6HR MAX TEMP:  63;

LACON          FAIR      38  32  78 E3        30.10R
6HR MIN TEMP:  38; 6HR MAX TEMP:  59;

LAWRENCEVILLE  FAIR      50  36  58 N6        30.01R
6HR MIN TEMP:  50; 6HR MAX TEMP:  65;

LITCHFIELD     FAIR      46  34  63 N8        30.03R
$$


CITY           SKY/WX    TMP DP  RH WIND       PRES   REMARKS
LINCOLN        FAIR      43  33  68 NE7       30.07R
6HR MIN TEMP:  43; 6HR MAX TEMP:  63;

MACOMB         FAIR      43  31  62 N7        30.08S
MATTOON        FAIR      45  35  68 NE13      30.04R
6HR MIN TEMP:  45; 6HR MAX TEMP:  61;

MT CARMEL AP   FAIR      48  41  76 N5        30.00S
OLNEY-NOBLE AP FAIR      46  36  66 CALM      30.02R
PARIS          FAIR      45  34  65 NE13G18   30.06R
6HR MIN TEMP:  45; 6HR MAX TEMP:  60;

PEORIA         FAIR      44  32  62 E16       30.09R
6HR MIN TEMP:  44; 6HR MAX TEMP:  63;

PONTIAC        FAIR      37  30  75 CALM      30.09S
RANTOUL        FAIR      43  29  59 NE12      30.08R
6HR MIN TEMP:  43; 6HR MAX TEMP:  60;

ROBINSON       FAIR      47  40  76 NE9       30.03R
6HR MIN TEMP:  44; 6HR MAX TEMP:  64;

SPRINGFIELD    FAIR      47  31  53 NE9       30.06R
6HR MIN TEMP:  46; 6HR MAX TEMP:  64;

TAYLORVILLE    FAIR      45  32  61 NE10      30.05R
$$

...REGIONAL REPORTS...


CITY           SKY/WX    TMP DP  RH WIND       PRES   REMARKS
CHICAGO O`HARE FAIR      39  26  59 NE6       30.10R WCI  35
KANKAKEE       FAIR      37  31  79 NE5       30.09S WCI  33
MOLINE         FAIR      40  30  67 NE6       30.07R
MOUNT VERNON   FAIR      39  30  70 CALM      30.02R
PITTSFIELD     FAIR      52  30  43 CALM      30.05S
QUINCY         FAIR      45  31  58 NE8       30.04S
ROCKFORD       FAIR      39  27  62 E3        30.12S
$$


CITY           SKY/WX    TMP DP  RH WIND       PRES   REMARKS
BURLINGTON     FAIR      49  31  49 NE6       30.05S
CEDAR RAPIDS   FAIR      47  31  53 NE7       30.06R
DES MOINES     MOCLDY    55  32  41 E9        30.05S
KIRKSVILLE     FAIR      49  33  54 NE5       30.06R
OTTUMWA        FAIR      50  34  54 NE8       30.05S
ST LOUIS       FAIR      52  37  56 CALM      30.04R
$$


CITY           SKY/WX    TMP DP  RH WIND       PRES   REMARKS
TERRE HAUTE    FAIR      46  34  62 NE10      30.04R
EVANSVILLE     FAIR      54  35  48 N3        29.99R
INDIANAPOLIS   FAIR      42  31  64 N9        30.03R
LAFAYETTE      FAIR      39  28  64 N8        30.06R WCI  33
MADISON        FAIR      37  27  67 NE7       30.12S WCI  32
MILWAUKEE      FAIR      35  29  78 NE12G18   30.12S WCI  27
$$





USA.gov is the U.S. government's official web portal to all federal, state and local government web resources and services.